Location: Ash Swamp
(41.5170°N, 74.6157°W)
Time: 02:28:30
(UTC+00:00)

IGS 5A - Pass Details

Date: 14 July 2020
Orbit: 584 x 588 km, 97.6° (Epoch: 09 August)

Event Time Altitude Azimuth Distance (km) Brightness Sun altitude
Exits shadow 02:20:04 22° 182° (S) 1,276 4.7 -16.3°
Maximum altitude 02:22:35 65° 259° (W) 645 3.7 -16.6°
Drops below altitude 10° 02:26:42 10° 342° (NNW) 1,913 7.2 -17.1°
Sets 02:28:53 0° 345° (NNW) 2,818 8.2 -17.3°
